Location: Unspecified
(42.3650°N, 71.1030°W)
Time: 21:32:48
(UTC+00:00)

Cosmos 773 Rocket - Pass Details

Date: 02 March 2024
Orbit: 743 x 775 km, 74.1° (Epoch: 15 April)

Event Time Altitude Azimuth Distance (km) Brightness Sun altitude
Rises 23:41:03 0° 343° (NNW) 3,263 7.5 -12.8°
Reaches altitude 10° 23:43:30 10° 348° (NNW) 2,332 6.7 -13.2°
Maximum altitude 23:48:42 56° 67° (ENE) 923 4.1 -14.2°
Drops below altitude 10° 23:53:52 10° 145° (SE) 2,311 6.1 -15.1°
Enters shadow 23:54:13 - 146° (SE) 2,442 6.2 -15.2°
